User: anonymous   Login
Location: Vancouver
(49.2500°N, 123.1330°W)
Time: 22:19:07
(UTC-07:00)
Language:

Cosmos 1864 Rocket - Orbit

View from above orbital plane
View from above orbital plane
View from above satellite
View from above satellite

Ground track
Ground track

The orbit data is extracted from the following two-line orbital elements,

1 18161U 87057B   17115.92806264 +.00000157 +00000-0 +14257-3 0  9991
2 18161 082.9309 110.8393 0032683 099.3622 321.6703 13.76970568476773
Epoch (UTC): 25 April 2017 22:16:24
Eccentricity: 0.0032683
inclination: 82.9309°
perigee height: 950 km
apogee height: 998 km
right ascension of ascending node: 110.8393°
argument of perigee: 99.3622°
revolutions per day: 13.76970568
mean anomaly at epoch: 321.6703°
orbit number at epoch: 47677

The dashed part of the orbit path shows where the satellite is in the earth's shadow,  

DLR